Voltar ao catálogo

SL-8 R/B

AtivoPO
NORAD 16292·ROCKET BODY·🇷🇺 Russia

Lançado Nov 28, 1985 de Plesetsk Cosmodrome

Loading…

Próximas Passagens (próximas 24 horas)

TLE

AtualizadoSource: Space-Track

Época: Sep 14, 2026, 14:43 UTC

1 16292U 85110B   26257.61364607  .00000031  00000-0  16399-4 0  9996
2 16292  82.9348  10.0147 0030213   1.8189 358.3073 13.77280299 49454

Acompanhe SL-8 R/B em tempo real com AllMySat

Download on the App Store